TY-1
1 41844U 16066D   22146.85032586  .00019207  00000-0  66093-3 0  9998
2 41844  97.3905 158.9588 0013349  13.4439 108.9516 15.30020374308303
CAS-2T
1 41847U 16066G   22146.43297052  .00000524  00000-0  89926-4 0  9999
2 41847  98.5517 211.1238 0362738 275.7814  80.2135 14.38556605291185
EO-88
1 42017U 17008BX  22146.45569943  .00017654  00000-0  53795-3 0  9995
2 42017  97.2702 212.8971 0003764 336.4829  23.6242 15.34020734293707
CAS-4B
1 42759U 17034B   22146.83208412  .00005610  00000-0  33568-3 0  9995
2 42759  43.0168  91.8646 0007826 162.0713 240.9329 15.11763465273086
CAS-4A
1 42761U 17034D   22146.87074810  .00005595  00000-0  33395-3 0  9995
2 42761  43.0175  90.4539 0008334 164.4204 247.2233 15.11856938273092
NIUSat
1 42766U 17036B   22146.82477867  .00009815  00000-0  38271-3 0  9993
2 42766  97.2039 185.4215 0014848  50.3781 309.8766 15.26035751273503
Aalto 1
1 42775U 17036L   22146.59031269  .00009084  00000-0  36174-3 0  9997
2 42775  97.1992 185.1547 0013745  50.7175 309.5280 15.25368988273442
URSA MAIOR
1 42776U 17036M   22146.38223202  .00009610  00000-0  37664-3 0  9995
2 42776  97.2009 185.6608 0013423  50.3157 309.9263 15.25887981273449
Max Valier Sat
1 42778U 17036P   22146.36854725  .00009949  00000-0  38094-3 0  9998
2 42778  97.2073 188.2309 0012179  53.0110 307.2242 15.26671988273532
Pegasus
1 42784U 17036V   22146.70989008  .00011965  00000-0  43330-3 0  9996
2 42784  97.2010 189.3504 0011321  53.2396 306.9881 15.28473494273691
NUDATSat
1 42787U 17036Y   22146.56680887  .00029490  00000-0  92472-3 0  9999
2 42787  97.2049 193.1465 0009766  44.6665 315.5354 15.32964695273748
SUCHAI 1
1 42788U 17036Z   22146.07639479  .00018902  00000-0  64889-3 0  9994
2 42788  97.2016 190.3084 0010521  51.7671 308.4516 15.30128702273768
SKCUBE
1 42789U 17036AA  22146.38964207  .00014676  00000-0  51535-3 0  9997
2 42789  97.2015 190.1052 0010565  51.6549 308.5640 15.29443594273702
VZLUSAT 1
1 42790U 17036AB  22146.37665490  .00020116  00000-0  63540-3 0  9995
2 42790  97.2036 192.9326 0008939  46.1789 314.0191 15.32816059273862
VENTA 1
1 42791U 17036AC  22145.69441542  .00015692  00000-0  55994-3 0  9997
2 42791  97.2013 189.3378 0010503  54.3994 305.8224 15.28905082273588
Robusta 1B
1 42792U 17036AD  22146.09076787  .00016751  00000-0  57935-3 0  9992
2 42792  97.2013 190.3610 0010144  52.8914 307.3253 15.29914497273700
D-SAT
1 42794U 17036AF  22146.82729267  .00003161  00000-0  26993-3 0  9994
2 42794  97.4510 153.3828 0124112 156.8879 203.7992 14.92532709268289
TechnoSat
1 42829U 17042E   22146.82134491  .00001786  00000-0  18175-3 0  9993
2 42829  97.4236   2.2206 0015595  80.8608 279.4375 14.91816454264861
QIKCOM-1
1 42983U 98067NF  22145.56985036  .00146486  19212-4  42836-3 0  9996
2 42983  51.6296 302.7939 0004537 262.9004  97.1487 15.92500788261282
AO-91
1 43017U 17073E   22146.28316518  .00003086  00000-0  23760-3 0  9990
2 43017  97.6773  41.3807 0247471 260.3989  96.9187 14.81294002243832
PICSAT
1 43132U 18004X   22146.14325989  .00018990  00000-0  63640-3 0  9991
2 43132  97.3725 222.6503 0008951  83.1664 277.0595 15.30927504242996
AO-92
1 43137U 18004AC  22146.43632505  .00011355  00000-0  40489-3 0  9997
2 43137  97.3689 221.7963 0009198  84.6460 275.5829 15.29022487242979
TianYi 2
1 43155U 18008A   22146.77324313  .00011123  00000-0  59546-3 0  9990
2 43155  97.3534 205.8704 0015415 214.8283 241.3716 15.15093513239990
Zhou Enlai
1 43156U 18008B   22146.85456406  .00011668  00000-0  62910-3 0  9992
2 43156  97.3591 205.8190 0012742 214.9311 258.4288 15.14861085239939
TianYi 6
1 43158U 18008D   22146.76194780  .00010129  00000-0  56216-3 0  9991
2 43158  97.3530 203.7514 0012132 216.9575 282.7864 15.13871150239829
S-Net D
1 43186U 18014G   22145.98272237  .00002183  00000-0  19037-3 0  9997
2 43186  97.6595  52.1522 0011387  20.5156 339.6521 14.97839530235559
S-Net B
1 43187U 18014H   22146.31685149  .00001883  00000-0  16495-3 0  9997
2 43187  97.6598  52.4321 0011380  19.5056 340.6599 14.97838395235604
S-Net A
1 43188U 18014J   22146.31711941  .00001910  00000-0  16724-3 0  9994
2 43188  97.6603  52.4946 0011375  19.5828 340.5829 14.97837685235602
S-Net C
1 43189U 18014K   22146.18418476  .00001876  00000-0  16432-3 0  9994
2 43189  97.6593  52.2909 0011353  19.4965 340.6689 14.97834336234137
FMN 1
1 43192U 18015A   22146.76580640  .00039002  00000-0  10595-2 0  9991
2 43192  97.5314 291.3106 0011745 110.4805 357.0437 15.37404335240111
Shaonian Xing
1 43199U 18015H   22146.71954035  .00025056  00000-0  76751-3 0  9997
2 43199  97.5097 286.6619 0014229 118.0392 350.1489 15.33694370240114
SurfSat
1 43614U 18070B   22146.75586727  .00041234  00000-0  63954-3 0  9990
2 43614  93.0305  89.5426 0015222 101.9410 258.3559 15.53729684207693
CP-7 DAVE
1 43615U 18070C   22146.36207209  .00042208  00000-0  68063-3 0  9991
2 43615  93.0296  89.2476 0015232 103.9945 256.3012 15.52646967207605
ELFIN-B
1 43616U 18070D   22146.39631352  .00083465  00000-0  87267-3 0  9992
2 43616  93.0205  90.3004 0014409  99.8955 260.3940 15.64067165207903
ELFIN-A
1 43617U 18070E   22146.74855899  .00090622  00000-0  87744-3 0  9999
2 43617  93.0276  91.7503 0013650  96.8694 263.4128 15.65999233208000
CubeBel-1
1 43666U 18083E   22146.85052260  .00014860  00000-0  63410-3 0  9994
2 43666  97.4211 175.7839 0014431  54.5595  66.6470 15.22911100198196
Changshagaoxin
1 43669U 18083H   22146.80605444  .00013769  00000-0  61573-3 0  9995
2 43669  97.4172 171.7853 0011376  54.9079  49.0264 15.21366308198013
Ten-Koh
1 43677U 18084G   22146.80404119  .00001512  00000-0  15836-3 0  9995
2 43677  97.9609 276.6623 0015406 347.8770  12.2075 14.91050464194457
PO-101
1 43678U 18084H   22146.72259989  .00001510  00000-0  15412-3 0  9998
2 43678  97.9667 279.7378 0009820   5.6467 354.4873 14.92140035194618
IRVINE 01
1 43693U 18088D   22146.78671379  .00037809  00000-0  10573-2 0  9998
2 43693  85.0278 325.5252 0012797 185.1915 174.9204 15.36426213196890
QO-100
1 43700U 18090A   22146.62547066  .00000144  00000-0  00000+0 0  9991
2 43700   0.0177  49.5441 0001030  22.1880  63.3795  1.00273335 13059
Reaktor Hello World
1 43743U 18096AA  22146.15225756  .00017087  00000-0  52764-3 0  9993
2 43743  97.3528 226.1211 0016505 136.8521 223.4019 15.33478368194547
MinXSS-2
1 43758U 18099A   22145.72731667  .00004463  00000-0  38949-3 0  9990
2 43758  97.6244 214.1930 0014255 346.9996  13.0857 14.97248344189709
AO-95
1 43770U 18099N   22146.18918103  .00003428  00000-0  30746-3 0  9994
2 43770  97.6211 213.1171 0013676 356.7367   3.3763 14.96340035189684
RANGE-B
1 43772U 18099Q   22146.19273561  .00004166  00000-0  36703-3 0  9998
2 43772  97.6321 214.7428 0012804 342.2938  17.7836 14.96938579189705
RANGE-A
1 43773U 18099R   22145.70405414  .00002553  00000-0  23257-3 0  9997
2 43773  97.6132 211.5628 0012744 344.9747  15.1094 14.95959398189599
MOVE-II
1 43780U 18099Y   22145.29871820  .00005238  00000-0  45297-3 0  9998
2 43780  97.6247 213.3161 0012511 354.8515   5.2577 14.97551519189592
SNUSat 2
1 43782U 18099AA  22146.17189308  .00003032  00000-0  27142-3 0  9990
2 43782  97.6211 213.5564 0011859 341.5954  18.4837 14.96515278189707
SnugLite
1 43784U 18099AC  22146.14575527  .00003711  00000-0  32913-3 0  9997
2 43784  97.6187 213.1765 0014153 350.8601   9.2361 14.96725073189720
ITASat 1
1 43786U 18099AE  22146.18472331  .00002847  00000-0  25517-3 0  9993
2 43786  97.6236 214.0190 0014270 348.0990  11.9892 14.96499279189724
EAGLET 1
1 43790U 18099AJ  22146.14953666  .00002591  00000-0  23161-3 0  9998
2 43790  97.6234 214.5132 0012655 354.8390   5.2699 14.96699145189457
ESEO
1 43792U 18099AL  22146.14276983  .00001670  00000-0  15314-3 0  9998
2 43792  97.6189 213.7572 0012749 351.8811   8.2202 14.96157578189492
CSIM
1 43793U 18099AM  22146.15095745  .00005799  00000-0  49206-3 0  9998
2 43793  97.6271 215.0129 0011377 347.7460  12.3485 14.98251797189543
Astrocast 0.1
1 43798U 18099AS  22146.14956743  .00005082  00000-0  44040-3 0  9992
2 43798  97.6259 214.9390 0010787 331.1783  28.8842 14.97494688189772
JO-97
1 43803U 18099AX  22146.41022355  .00004085  00000-0  35948-3 0  9991
2 43803  97.6210 213.9887 0013977 349.0083  11.0832 14.96980710189779
Suomi 100
1 43804U 18099AY  22146.42663262  .00002482  00000-0  22091-3 0  9995
2 43804  97.6198 213.9314 0014296 347.6839  12.4031 14.96887705189785
Al Farabi 2
1 43805U 18099AZ  22146.88959255  .00006275  00000-0  54289-3 0  9994
2 43805  97.6235 214.8386 0014299 346.2906  13.7908 14.97438562189871
CHOMPTT
1 43855U 18104G   22146.49581879  .00009996  00000-0  37153-3 0  9990
2 43855  85.0373  65.7841 0013895 328.7074  31.3342 15.27294054191377
ISAT
1 43879U 18111D   22146.28657823  .00005025  00000-0  43087-3 0  9996
2 43879  97.6670  52.2970 0013941  42.6722 317.5580 14.97883472186359
UWE-4
1 43880U 18111E   22145.69112734  .00005484  00000-0  46791-3 0  9993
2 43880  97.6700  52.3983 0013393  46.0934 314.1392 14.98046515186291
Sparrow
1 43881U 18111F   22146.31166787  .00003687  00000-0  31508-3 0  9994
2 43881  97.6719  53.2274 0013464  38.4920 321.7261 14.98193553186399
Lume 1
1 43908U 18111AJ  22146.21119054  .00012021  00000-0  41380-3 0  9999
2 43908  97.1947  34.7215 0019854 147.9905 212.2547 15.30001295189992
FO-99
1 43937U 19003F   22146.33125250  .00013986  00000-0  47780-3 0  9991
2 43937  97.1321 180.5492 0019607 228.3792 131.5771 15.30215695186597
